Weather History for Flint, MI

Change the Weather History Date:

Tuesday, May 6, 2014

  Actual Average Record
Temperature  
Mean Temperature 50 °F 54 °F  
Max Temperature 62 °F 65 °F 89 °F (1949)
Min Temperature 38 °F 42 °F 27 °F (1968)
Degree Days  
Heating Degree Days 15 12  
Month to date heating degree days 93 75  
Since 1 July heating degree days 7345 6682  
Cooling Degree Days 0 0  
Month to date cooling degree days 0 0  
Year to date cooling degree days 0 4  
Moisture  
Dew Point 36 °F    
Average Humidity 62    
Maximum Humidity 85    
Minimum Humidity 39    
Precipitation  
Precipitation 0.00 in 0.10 in 1.57 in (1976)
Month to date precipitation 0.41 0.59  
Year to date precipitation 8.11 8.50  
Snow  
Snow 0.00 in 0.00 in T in ()
Month to date snowfall 0.0 0.0  
Since 1 July snowfall 83.9 47.4  
Snow Depth 0.00 in    
Sea Level Pressure  
Sea Level Pressure 30.08 in    
Wind  
Wind Speed 8 mph (ENE)    
Max Wind Speed 18 mph    
Max Gust Speed 22 mph    
Visibility 10 miles    
Events      
T = Trace of Precipitation, MM = Missing Value Source: NWS Daily Summary

Daily Weather History Graph

Daily Weather History Graph

Search for Another Location

Airport:

Trip Planner

Search our weather history database for the weather conditions in past years. The results will help you decide how hot, cold, wet, or windy it might be!

Date:

Astronomy

May. 06, 2014 Rise Set
Actual Time 6:22 AM EDT 8:41 PM EDT
Civil Twilight 5:50 AM EDT 9:13 PM EDT
Nautical Twilight 5:11 AM EDT 9:52 PM EDT
Astronomical Twilight 4:28 AM EDT 10:36 PM EDT
Moon 12:39 PM EDT (5/6) 1:58 AM EDT (5/6)
Length of Visible Light 15h 22m
Length of Day
14h 19m
Waxing Crescent, 46% of the Moon is Illuminated
May 6
Waxing Crescent
May 6
First Quarter
May 14
Full
May 21
Last Quarter
May 28
New

Hourly Weather History & Observations

Time (EDT) Temp. Windchill Dew Point Humidity Pressure Visibility Wind Dir Wind Speed Gust Speed Precip Events Conditions
12:53 AM 45.0 °F 43.5 °F 37.0 °F 74% 30.03 in 10.0 mi East 3.5 mph - N/A   Scattered Clouds
1:53 AM 44.1 °F 40.8 °F 37.0 °F 76% 30.04 in 10.0 mi NE 5.8 mph - N/A   Clear
2:53 AM 42.1 °F 40.2 °F 36.0 °F 79% 30.04 in 10.0 mi NE 3.5 mph - N/A   Clear
3:53 AM 41.0 °F 35.8 °F 36.0 °F 82% 30.04 in 10.0 mi NE 8.1 mph - N/A   Clear
7:53 AM 44.1 °F 42.5 °F 37.9 °F 79% 30.12 in 10.0 mi East 3.5 mph - N/A   Clear
8:53 AM 46.9 °F - 35.1 °F 63% 30.11 in 10.0 mi ENE 10.4 mph - N/A   Clear
10:53 AM 53.1 °F - 35.1 °F 50% 30.13 in 10.0 mi NE 12.7 mph - N/A   Clear
11:53 AM 55.0 °F - 35.1 °F 47% 30.13 in 10.0 mi East 9.2 mph - N/A   Clear
12:53 PM 57.9 °F - 36.0 °F 44% 30.11 in 10.0 mi Variable 5.8 mph - N/A   Scattered Clouds
1:53 PM 59.0 °F - 36.0 °F 42% 30.09 in 10.0 mi East 11.5 mph 18.4 mph N/A   Clear
2:53 PM 61.0 °F - 37.0 °F 41% 30.09 in 10.0 mi Variable 5.8 mph - N/A   Clear
3:53 PM 62.1 °F - 37.0 °F 39% 30.08 in 10.0 mi Variable 5.8 mph - N/A   Clear
4:53 PM 61.0 °F - 37.0 °F 41% 30.07 in 10.0 mi East 10.4 mph - N/A   Clear
5:53 PM 61.0 °F - 36.0 °F 39% 30.06 in 10.0 mi East 10.4 mph - N/A   Clear
6:53 PM 59.0 °F - 35.1 °F 41% 30.07 in 10.0 mi East 11.5 mph - N/A   Clear
7:53 PM 57.0 °F - 34.0 °F 42% 30.08 in 10.0 mi East 11.5 mph - N/A   Clear
8:53 PM 55.0 °F - 33.1 °F 43% 30.09 in 10.0 mi ENE 13.8 mph - N/A   Clear
9:53 PM 51.1 °F - 34.0 °F 52% 30.10 in 10.0 mi ENE 13.8 mph - N/A   Clear
10:53 PM 48.0 °F - 32.0 °F 54% 30.10 in 10.0 mi East 11.5 mph - N/A   Clear
11:53 PM 45.0 °F 40.6 °F 32.0 °F 60% 30.10 in 10.0 mi East 8.1 mph - N/A   Clear